DW9029 Weather Reports


Display with metric or nautical units.
time (UTC)temp
F
wind
direction
speed
MPH
gust
MPH
rain 1hr
in
rain 24hr
in
rain mn
in
humidity
%
barometer
mb
20260510181904 66 221 5.0 12.0 0.00 0.11 0.11 59 1013.7
20260510181404 66 208 7.0 12.0 0.00 0.11 0.11 59 1013.6
20260510180904 66 207 5.0 14.0 0.00 0.11 0.11 59 1013.5
20260510174404 67 224 4.0 10.0 0.00 0.11 0.11 61 1013.3
20260510173904 67 210 6.0 13.0 0.00 0.11 0.11 61 1013.3
20260510173403 66 192 6.0 15.0 0.00 0.11 0.11 59 1013.3
20260510171904 67 215 6.0 14.0 0.00 0.11 0.11 62 1013.3
20260510171404 67 238 7.0 14.0 0.00 0.11 0.11 60 1013.3
20260510170904 67 214 9.0 16.0 0.00 0.11 0.11 58 1013.4
20260510170404 67 238 8.0 17.0 0.00 0.11 0.11 58 1013.4
20260510164904 67 227 10.0 20.0 0.00 0.11 0.11 60 1013.2
20260510164404 67 229 6.0 16.0 0.00 0.11 0.11 59 1013.4
20260510163904 67 240 6.0 17.0 0.00 0.11 0.11 60 1013.4
20260510163404 67 195 5.0 13.0 0.00 0.11 0.11 63 1013.2
20260510161904 66 242 6.0 12.0 0.00 0.11 0.11 66 1013.3
20260510161404 67 236 5.0 12.0 0.00 0.11 0.11 66 1013.3
20260510160904 66 236 5.0 14.0 0.00 0.11 0.11 67 1013.4
20260510160404 66 245 3.0 9.0 0.00 0.11 0.11 68 1013.4
20260510154404 65 258 9.0 15.0 0.00 0.11 0.11 65 1013.5
20260510153904 65 270 5.0 12.0 0.00 0.11 0.11 62 1013.5
20260510153403 67 269 5.0 16.0 0.00 0.11 0.11 60 1013.4
20260510151904 68 232 9.0 18.0 0.00 0.11 0.11 62 1013.1
20260510151404 68 201 5.0 13.0 0.00 0.11 0.11 62 1013.2
20260510150904 67 227 5.0 21.0 0.00 0.11 0.11 62 1013.2
20260510150403 67 211 6.0 17.0 0.00 0.11 0.11 61 1013.4
20260510144904 67 217 8.0 16.0 0.00 0.11 0.11 62 1013.4
20260510144404 67 226 9.0 15.0 0.00 0.11 0.11 60 1013.4
20260510143904 68 226 9.0 18.0 0.00 0.11 0.11 60 1013.4
20260510143403 67 206 10.0 20.0 0.00 0.11 0.11 60 1013.4
20260510141904 67 235 6.0 18.0 0.00 0.11 0.11 61 1013.6
20260510141403 67 226 7.0 16.0 0.00 0.11 0.11 62 1013.5
20260510140904 66 222 7.0 20.0 0.00 0.11 0.11 66 1013.5
20260510140404 66 227 6.0 17.0 0.00 0.11 0.11 68 1013.7
20260510134904 65 211 9.0 15.0 0.01 0.11 0.11 70 1013.6
20260510133904 64 222 5.0 13.0 0.01 0.11 0.11 75 1013.8
20260510133404 63 208 6.0 13.0 0.01 0.11 0.11 78 1013.9
20260510131904 61 238 2.0 8.0 0.02 0.11 0.11 84 1013.9
20260510131404 60 262 5.0 9.0 0.02 0.11 0.11 85 1013.9
20260510130909 60 257 4.0 14.0 0.02 0.11 0.11 85 1013.9
20260510130404 60 257 6.0 18.0 0.02 0.11 0.11 84 1014.1
20260510123904 62 246 7.0 15.0 0.01 0.10 0.10 83 1014.0
20260510123404 62 254 7.0 25.0 0.01 0.10 0.10 83 1014.0
20260510121909 66 221 9.0 16.0 0.00 0.09 0.09 72 1013.6
20260510121404 66 207 7.0 17.0 0.00 0.09 0.09 68 1013.6
20260510120904 67 223 7.0 18.0 0.00 0.10 0.09 68 1013.4
20260510120403 67 197 9.0 20.0 0.00 0.17 0.09 67 1013.4
20260510114904 67 204 8.0 14.0 0.00 0.37 0.09 65 1013.3
20260510114404 68 219 6.0 12.0 0.00 0.37 0.09 67 1013.3
20260510113904 68 218 12.0 21.0 0.00 0.37 0.09 65 1013.4
20260510113404 67 237 9.0 20.0 0.00 0.37 0.09 65 1013.3
20260510111904 67 225 6.0 18.0 0.00 0.51 0.09 66 1013.5
20260510110903 67 223 8.0 15.0 0.00 0.52 0.09 67 1013.4
20260510110404 67 238 8.0 18.0 0.00 0.52 0.09 67 1013.5
20260510104904 66 215 7.0 14.0 0.00 0.52 0.09 70 1013.6
20260510104404 66 216 7.0 17.0 0.00 0.52 0.09 73 1013.4
20260510103903 66 226 5.0 12.0 0.00 0.53 0.09 76 1013.6
20260510101904 64 223 5.0 12.0 0.07 0.53 0.09 80 1013.7
20260510100904 63 211 7.0 13.0 0.07 0.53 0.09 81 1013.8
20260510094903 61 210 5.0 12.0 0.07 0.53 0.09 85 1013.7
20260510094404 61 214 4.0 14.0 0.07 0.53 0.09 84 1013.7
20260510093904 61 231 3.0 20.0 0.07 0.53 0.09 84 1013.7
20260510093404 63 221 8.0 20.0 0.05 0.50 0.07 84 1013.8
20260510091904 63 204 8.0 15.0 0.00 0.46 0.02 85 1013.4
20260510091404 63 201 7.0 17.0 0.00 0.46 0.02 85 1013.4
20260510090904 63 199 9.0 17.0 0.00 0.47 0.02 85 1013.2
20260510090403 63 181 6.0 17.0 0.00 0.48 0.02 85 1013.0
20260510084904 62 198 6.0 13.0 0.00 0.48 0.02 85 1013.2
20260510083905 61 205 5.0 15.0 0.00 0.48 0.02 87 1013.3
20260510083405 61 212 2.0 9.0 0.00 0.48 0.02 88 1013.2
20260510081905 61 249 1.0 9.0 0.00 0.48 0.02 89 1013.3
20260510080905 60 211 6.0 9.0 0.00 0.48 0.02 90 1013.2
20260510080404 60 186 0.0 9.0 0.00 0.48 0.02 91 1013.1
20260510073905 60 196 0.0 7.0 0.00 0.48 0.02 92 1013.0
20260510073404 60 187 1.0 5.0 0.00 0.48 0.02 92 1013.0
20260510071405 59 174 0.0 0.0 0.01 0.48 0.02 92 1013.0
20260510070405 59 174 2.0 5.0 0.01 0.48 0.02 92 1013.0
20260510064904 59 203 0.0 0.0 0.02 0.48 0.02 92 1012.8
20260510064405 59 204 0.0 2.0 0.02 0.48 0.02 92 1012.8
20260510063905 59 205 0.0 0.0 0.02 0.48 0.02 92 1012.8
20260510063405 59 208 0.0 0.0 0.02 0.48 0.02 92 1012.8
20260510061405 59 209 0.0 0.0 0.02 0.47 0.02 91 1012.9
20260510060905 59 209 0.0 0.0 0.02 0.47 0.02 91 1012.8
20260510060405 59 211 1.0 3.0 0.02 0.47 0.02 91 1012.7
20260510054905 58 209 0.0 0.0 0.01 0.46 0.01 91 1012.7
20260510053405 58 197 0.0 0.0 0.00 0.46 0.00 90 1012.5
20260510051905 58 215 0.0 5.0 0.00 0.46 0.00 90 1012.5
20260510051404 58 189 0.0 5.0 0.00 0.46 0.00 90 1012.6
20260510050905 58 179 0.0 0.0 0.00 0.46 0.00 90 1012.5
20260510050405 58 179 0.0 3.0 0.00 0.46 0.00 90 1012.5
20260510044905 58 190 0.0 0.0 0.00 0.46 0.00 90 1012.4
20260510044404 58 199 0.0 0.0 0.00 0.46 0.00 90 1012.4
20260510043405 58 185 1.0 5.0 0.00 0.46 0.00 90 1012.3
20260510041405 58 185 1.0 3.0 0.00 0.46 0.00 90 1012.3
20260510040905 58 181 1.0 6.0 0.00 0.46 0.00 90 1012.3
20260510040405 58 192 0.0 3.0 0.00 0.46 0.00 90 1012.3
20260510034904 58 194 0.0 0.0 0.00 0.46 0.00 90 1012.3
20260510034405 59 158 0.0 3.0 0.00 0.46 0.00 90 1012.2
20260510033905 59 180 0.0 3.0 0.00 0.46 0.00 90 1012.3
20260510033405 59 185 0.0 7.0 0.00 0.46 0.00 90 1012.3
20260510031905 59 189 0.0 3.0 0.00 0.46 0.00 90 1012.2
20260510031405 59 185 0.0 0.0 0.00 0.46 0.00 90 1012.2
20260510030905 59 195 1.0 5.0 0.00 0.46 0.00 91 1012.2
20260510030405 59 234 0.0 6.0 0.00 0.46 0.00 91 1012.3
20260510024905 59 185 0.0 0.0 0.00 0.46 0.00 91 1012.1
20260510024405 59 169 0.0 3.0 0.00 0.46 0.00 91 1012.1
20260510023405 59 207 0.0 7.0 0.00 0.46 0.00 91 1012.3
20260510020905 59 187 0.0 0.0 0.00 0.46 0.00 91 1012.3
20260510020405 59 179 0.0 3.0 0.00 0.46 0.00 91 1012.3
20260510014905 59 176 1.0 3.0 0.00 0.46 0.00 91 1012.6
20260510014405 59 176 0.0 3.0 0.00 0.46 0.00 91 1012.6
20260510013405 59 199 0.0 0.0 0.00 0.46 0.00 91 1012.7
20260510011905 59 188 0.0 0.0 0.00 0.46 0.00 90 1012.7
20260510011405 59 188 0.0 0.0 0.00 0.46 0.00 90 1012.7
20260510010904 59 188 0.0 0.0 0.00 0.46 0.00 90 1012.8
20260510010404 59 188 0.0 7.0 0.00 0.46 0.00 90 1012.8
20260510004905 59 176 2.0 5.0 0.00 0.46 0.00 90 1013.0
20260510003905 59 191 0.0 7.0 0.00 0.46 0.00 90 1013.2
20260510003405 59 205 1.0 6.0 0.00 0.46 0.00 90 1013.2
20260510001905 59 192 0.0 0.0 0.00 0.46 0.00 89 1013.2
20260510001405 59 205 0.0 0.0 0.00 0.46 0.00 89 1013.1
20260510000905 59 207 0.0 0.0 0.00 0.46 0.00 89 1013.2
20260510000405 59 206 0.0 0.0 0.00 0.46 0.00 89 1013.3
20260509234405 59 179 0.0 3.0 0.00 0.46 0.00 89 1013.4
20260509233905 59 182 0.0 0.0 0.00 0.46 0.00 89 1013.4
20260509233405 59 189 0.0 3.0 0.00 0.46 0.00 89 1013.4
20260509231905 59 194 0.0 0.0 0.00 0.46 0.00 88 1013.4
20260509231405 59 175 0.0 0.0 0.00 0.46 0.00 88 1013.4
20260509230905 59 179 0.0 0.0 0.00 0.46 0.00 88 1013.4
20260509230405 59 185 0.0 6.0 0.00 0.46 0.00 88 1013.4
20260509224905 59 177 0.0 3.0 0.00 0.46 0.00 87 1013.4
20260509224405 59 178 0.0 3.0 0.00 0.46 0.00 87 1013.4
20260509223905 59 191 0.0 0.0 0.00 0.46 0.00 87 1013.4
20260509223405 60 202 0.0 5.0 0.00 0.46 0.00 86 1013.5
20260509221905 60 193 0.0 5.0 0.00 0.46 0.00 86 1013.6
20260509221405 60 192 0.0 3.0 0.00 0.46 0.00 86 1013.5
20260509220905 60 202 0.0 6.0 0.00 0.46 0.00 86 1013.5
20260509220405 60 223 0.0 6.0 0.00 0.46 0.00 87 1013.5
20260509214905 60 186 2.0 6.0 0.00 0.46 0.46 86 1013.5
20260509214404 60 188 1.0 7.0 0.00 0.46 0.46 86 1013.4
20260509213405 60 205 0.0 6.0 0.00 0.46 0.46 86 1013.4
20260509211905 61 199 1.0 7.0 0.00 0.46 0.46 87 1013.2
20260509210905 61 222 1.0 6.0 0.00 0.46 0.46 88 1013.1
20260509203405 61 192 0.0 7.0 0.00 0.46 0.46 86 1012.8
20260509201905 61 191 2.0 8.0 0.00 0.46 0.46 85 1012.7
20260509201405 61 211 1.0 7.0 0.00 0.46 0.46 84 1012.6
20260509200905 62 211 0.0 6.0 0.00 0.46 0.46 84 1012.5
20260509200405 62 225 0.0 7.0 0.00 0.46 0.46 83 1012.4
20260509194905 61 226 1.0 3.0 0.00 0.46 0.46 80 1012.2
20260509194405 61 205 0.0 6.0 0.00 0.46 0.46 80 1012.2
20260509193905 61 209 3.0 9.0 0.00 0.46 0.46 80 1012.0
20260509193405 61 222 1.0 9.0 0.00 0.46 0.46 79 1011.9
20260509191905 61 218 3.0 7.0 0.00 0.46 0.46 79 1011.9
20260509191405 62 194 0.0 5.0 0.00 0.46 0.46 78 1011.8
20260509190405 62 210 7.0 12.0 0.00 0.46 0.46 77 1011.8
20260509184405 63 210 6.0 12.0 0.00 0.46 0.46 81 1011.4
20260509183905 63 207 6.0 12.0 0.00 0.46 0.46 81 1011.3
20260509183405 63 199 7.0 20.0 0.00 0.46 0.46 81 1011.3